Weather History for Franklin, NC

Change the Weather History Date:

Saturday, March 16, 2013

  Actual Average (KTOC) Record (KTOC)
Temperature  
Mean Temperature 57 °F -  
Max Temperature 73 °F 63 °F 57 °F (2014)
Min Temperature 41 °F 41 °F 49 °F (2014)
Degree Days  
Heating Degree Days 8    
Growing Degree Days 7 (Base 50)    
Moisture  
Dew Point 39 °F    
Average Humidity 53    
Maximum Humidity 85    
Minimum Humidity 29    
Precipitation  
Precipitation 0.00 in - - ()
Sea Level Pressure  
Sea Level Pressure 29.91 in    
Wind  
Wind Speed 4 mph (WSW)    
Max Wind Speed 18 mph    
Max Gust Speed 29 mph    
Visibility 10 miles    
Events      
Averages and records for this station are not official NWS values.
T = Trace of Precipitation, MM = Missing Value Source: NWS Daily Summary

Daily Weather History Graph

Daily Weather History Graph

Search for Another Location

Airport:

Trip Planner

Search our weather history database for the weather conditions in past years. The results will help you decide how hot, cold, wet, or windy it might be!

Date:

Astronomy

Mar. 16, 2013 Rise Set
Actual Time 7:42 AM EDT 7:42 PM EDT
Civil Twilight 7:17 AM EDT 8:07 PM EDT
Nautical Twilight 6:47 AM EDT 8:37 PM EDT
Astronomical Twilight 6:18 AM EDT 9:06 PM EDT
Moon 10:22 AM EDT (3/16) No Moon Set
Length of Visible Light 12h 50m
Length of Day
11h 59m
Waxing Crescent, 23% of the Moon is Illuminated
Mar 16
Waxing Crescent
Mar 19
First Quarter
Mar 27
Full
Apr 3
Last Quarter
Apr 10
New

Hourly Weather History & Observations

Time (EDT) Temp. Windchill Dew Point Humidity Pressure Visibility Wind Dir Wind Speed Gust Speed Precip Events Conditions
12:15 AM 47.7 °F - 39.2 °F 72% 29.96 in 10.0 mi Calm Calm - N/A   Overcast
12:35 AM 46.4 °F - 38.7 °F 74% 29.96 in 10.0 mi Calm Calm - N/A   Mostly Cloudy
12:55 AM 44.2 °F - 37.8 °F 78% 29.95 in 10.0 mi Calm Calm - N/A   Scattered Clouds
1:15 AM 43.5 °F - 37.4 °F 79% 29.95 in 10.0 mi Calm Calm - N/A   Clear
1:35 AM 42.3 °F - 36.9 °F 81% 29.95 in 10.0 mi Calm Calm - N/A   Clear
1:55 AM 42.6 °F 40.9 °F 37.2 °F 81% 29.94 in 10.0 mi WSW 3.5 mph - N/A   Clear
2:15 AM 42.4 °F - 36.9 °F 81% 29.94 in 10.0 mi Calm Calm - N/A   Clear
2:35 AM 41.2 °F - 36.3 °F 83% 29.94 in 10.0 mi Calm Calm - N/A   Clear
2:55 AM 41.4 °F - 36.7 °F 83% 29.95 in 10.0 mi Calm Calm - N/A   Clear
3:15 AM 42.1 °F - 37.0 °F 82% 29.94 in 10.0 mi Calm Calm - N/A   Mostly Cloudy
3:35 AM 41.0 °F 39.0 °F 36.7 °F 85% 29.95 in 10.0 mi SW 3.5 mph - N/A   Overcast
3:55 AM 43.2 °F - 37.6 °F 81% 29.94 in 10.0 mi Calm Calm - N/A   Overcast
4:15 AM 44.4 °F - 38.3 °F 79% 29.94 in 10.0 mi Calm Calm - N/A   Overcast
4:35 AM 46.6 °F - 38.7 °F 74% 29.93 in 10.0 mi Calm Calm - N/A   Overcast
4:55 AM 46.9 °F - 38.7 °F 73% 29.93 in 10.0 mi Calm Calm - N/A   Mostly Cloudy
5:15 AM 49.8 °F - 38.7 °F 65% 29.93 in 10.0 mi Calm Calm - N/A   Clear
5:35 AM 54.3 °F - 37.4 °F 53% 29.93 in 10.0 mi WSW 3.5 mph - N/A   Clear
5:55 AM 48.4 °F - 38.1 °F 68% 29.93 in 10.0 mi Calm Calm - N/A   Clear
6:15 AM 49.5 °F - 37.8 °F 64% 29.94 in 10.0 mi WSW 4.6 mph - N/A   Clear
6:35 AM 54.5 °F - 36.9 °F 51% 29.94 in 10.0 mi Calm Calm - N/A   Scattered Clouds
6:55 AM 49.8 °F - 37.6 °F 63% 29.94 in 10.0 mi WSW 3.5 mph - N/A   Mostly Cloudy
7:15 AM 53.8 °F - 37.0 °F 53% 29.94 in 10.0 mi SW 4.6 mph 18.4 mph N/A   Scattered Clouds
7:35 AM 50.9 °F - 37.2 °F 59% 29.94 in 10.0 mi WSW 3.5 mph - N/A   Clear
7:55 AM 55.0 °F - 36.9 °F 50% 29.94 in 10.0 mi WSW 9.2 mph - N/A   Clear
8:15 AM 51.8 °F - 38.1 °F 60% 29.94 in 10.0 mi WSW 6.9 mph 18.4 mph N/A   Scattered Clouds
8:35 AM 54.1 °F - 38.3 °F 55% 29.94 in 10.0 mi WSW 5.8 mph - N/A   Scattered Clouds
8:55 AM 58.3 °F - 39.4 °F 49% 29.94 in 10.0 mi Calm Calm - N/A   Mostly Cloudy
9:15 AM 61.0 °F - 38.1 °F 43% 29.95 in 10.0 mi WNW 8.1 mph - N/A   Overcast
9:35 AM 62.1 °F - 38.3 °F 41% 29.94 in 10.0 mi Calm Calm - N/A   Overcast
9:55 AM 62.6 °F - 38.7 °F 41% 29.94 in 10.0 mi SSW 4.6 mph - N/A   Overcast
10:15 AM 62.8 °F - 39.7 °F 43% 29.94 in 10.0 mi West 5.8 mph - N/A   Overcast
10:35 AM 63.3 °F - 40.1 °F 43% 29.94 in 10.0 mi SW 11.5 mph 17.3 mph N/A   Overcast
10:55 AM 63.0 °F - 41.0 °F 45% 29.94 in 10.0 mi WSW 18.4 mph 24.2 mph N/A   Mostly Cloudy
11:15 AM 63.7 °F - 41.7 °F 45% 29.94 in 10.0 mi West 17.3 mph 23.0 mph N/A   Mostly Cloudy
11:35 AM 64.0 °F - 40.8 °F 43% 29.93 in 10.0 mi WNW 11.5 mph 23.0 mph N/A   Scattered Clouds
11:55 AM 65.5 °F - 41.4 °F 41% 29.92 in 10.0 mi WSW 9.2 mph 20.7 mph N/A   Mostly Cloudy
12:15 PM 66.4 °F - 40.6 °F 39% 29.92 in 10.0 mi West 9.2 mph 18.4 mph N/A   Mostly Cloudy
12:35 PM 66.9 °F - 41.2 °F 39% 29.91 in 10.0 mi WSW 12.7 mph 16.1 mph N/A   Mostly Cloudy
12:55 PM 67.3 °F - 40.3 °F 37% 29.91 in 10.0 mi West 10.4 mph 20.7 mph N/A   Scattered Clouds
1:15 PM 67.6 °F - 40.3 °F 37% 29.89 in 10.0 mi WSW 8.1 mph 20.7 mph N/A   Scattered Clouds
1:35 PM 69.4 °F - 39.9 °F 34% 29.87 in 10.0 mi West 13.8 mph 28.8 mph N/A   Scattered Clouds
1:55 PM 70.5 °F - 39.0 °F 32% 29.87 in 10.0 mi WSW 13.8 mph 21.9 mph N/A   Clear
2:15 PM 71.8 °F - 37.9 °F 29% 29.85 in 10.0 mi West 12.7 mph 23.0 mph N/A   Clear
2:35 PM 72.9 °F - 39.0 °F 29% 29.85 in 10.0 mi WNW 11.5 mph 20.7 mph N/A   Clear
2:55 PM 72.9 °F - 38.5 °F 29% 29.84 in 10.0 mi West 13.8 mph 25.3 mph N/A   Scattered Clouds
3:15 PM 73.6 °F - 39.4 °F 29% 29.84 in 10.0 mi West 17.3 mph 25.3 mph N/A   Clear
3:35 PM 73.0 °F - 39.4 °F 30% 29.83 in 10.0 mi WSW 12.7 mph 19.6 mph N/A   Scattered Clouds
3:55 PM 72.7 °F - 38.8 °F 29% 29.84 in 10.0 mi West 17.3 mph 27.6 mph N/A   Scattered Clouds
4:15 PM 73.0 °F - 39.6 °F 30% 29.84 in 10.0 mi WSW 13.8 mph 23.0 mph N/A   Scattered Clouds
4:35 PM 73.0 °F - 39.6 °F 30% 29.84 in 10.0 mi WSW 10.4 mph 21.9 mph N/A   Scattered Clouds
4:55 PM 72.3 °F - 39.4 °F 30% 29.84 in 10.0 mi WSW 13.8 mph 19.6 mph N/A   Scattered Clouds
5:15 PM 72.1 °F - 39.2 °F 30% 29.84 in 10.0 mi West 15.0 mph 23.0 mph N/A   Scattered Clouds
5:35 PM 72.0 °F - 38.3 °F 29% 29.84 in 10.0 mi West 18.4 mph 28.8 mph N/A   Scattered Clouds
5:55 PM 72.0 °F - 39.0 °F 30% 29.85 in 10.0 mi West 16.1 mph 21.9 mph N/A   Clear
6:15 PM 71.1 °F - 38.8 °F 31% 29.84 in 10.0 mi West 9.2 mph - N/A   Clear
6:55 PM 69.8 °F - 39.6 °F 33% 29.85 in 10.0 mi Calm Calm - N/A   Mostly Cloudy
7:15 PM 68.5 °F - 41.2 °F 37% 29.86 in 10.0 mi WNW 3.5 mph - N/A   Overcast
7:35 PM 67.3 °F - 39.9 °F 37% 29.87 in 10.0 mi WSW 6.9 mph 10.4 mph N/A   Mostly Cloudy
7:55 PM 65.7 °F - 39.9 °F 39% 29.89 in 10.0 mi WSW 6.9 mph - N/A   Scattered Clouds
8:15 PM 61.5 °F - 41.4 °F 48% 29.90 in 10.0 mi SW 3.5 mph - N/A   Scattered Clouds
8:35 PM 61.7 °F - 40.5 °F 46% 29.91 in 10.0 mi Calm Calm - N/A   Scattered Clouds
8:55 PM 58.3 °F - 41.7 °F 54% 29.91 in 10.0 mi WSW 5.8 mph - N/A   Scattered Clouds
9:15 PM 58.3 °F - 41.7 °F 54% 29.92 in 10.0 mi WSW 4.6 mph - N/A   Mostly Cloudy
9:35 PM 57.4 °F - 41.7 °F 56% 29.93 in 10.0 mi WSW 4.6 mph - N/A   Overcast
9:55 PM 55.4 °F - 43.0 °F 63% 29.93 in 10.0 mi Calm Calm - N/A   Overcast
10:15 PM 54.7 °F - 42.8 °F 64% 29.93 in 10.0 mi Calm Calm - N/A   Overcast
10:35 PM 53.2 °F - 42.3 °F 66% 29.94 in 10.0 mi Calm Calm - N/A   Mostly Cloudy
10:55 PM 52.0 °F - 41.9 °F 69% 29.94 in 10.0 mi Calm Calm - N/A   Scattered Clouds
11:15 PM 50.0 °F - 41.5 °F 73% 29.94 in 10.0 mi East 3.5 mph - N/A   Clear
11:35 PM 50.4 °F - 41.4 °F 71% 29.94 in 10.0 mi East 3.5 mph - N/A   Clear
11:55 PM 50.0 °F - 41.0 °F 71% 29.95 in 10.0 mi Calm Calm - N/A   Clear